Theta_e
292 289 288 287 287 285 284 283 282 282 282 283 284 284 285 284 285 284 285 286 287 288 287 287 287 287 287 286 284 283 284 284 285 285 286 285 285 285 285 284 284 284 284 283 283 282 281 281 281 281 280 280 280 279 279 278 278 278 278 277 278 277
290 288 288 287 287 286 285 283 282 281 281 282 283 284 283 284 284 284 285 286 286 287 285 286 287 287 286 286 285 284 284 285 284 284 283 285 285 284 284 284 284 284 283 283 283 282 281 281 281 280 280 280 280 279 279 278 278 278 277 277 277 277
288 288 288 287 287 286 285 284 283 282 282 281 281 282 283 283 284 284 284 284 285 285 285 286 286 286 285 284 284 285 284 284 284 284 285 283 284 284 284 284 284 284 284 283 283 282 281 281 280 280 280 280 279 279 279 278 278 278 277 277 276 277
287 287 288 288 288 287 287 286 285 283 282 281 282 282 281 282 283 283 284 284 285 285 285 285 284 284 284 284 284 284 284 284 284 284 283 283 284 284 284 284 284 284 283 283 282 282 281 281 281 280 280 279 279 278 278 278 277 277 277 277 276 276
285 286 286 286 287 287 287 287 287 285 284 283 282 282 283 282 283 283 284 284 284 285 285 284 284 284 284 284 284 284 285 284 284 284 284 284 284 284 284 284 284 284 283 283 282 282 281 281 281 280 280 280 279 278 278 278 278 277 277 276 276 276
285 286 285 286 286 287 287 288 288 288 287 286 283 282 283 282 283 283 283 283 284 284 284 284 284 284 284 284 285 285 285 285 285 284 284 284 284 283 283 284 284 283 283 282 282 282 281 281 281 280 280 280 279 279 278 278 277 278 277 277 277 276
284 285 285 285 286 286 287 287 288 288 288 288 287 286 284 283 282 282 283 283 283 284 284 284 284 284 284 284 285 285 285 285 285 284 284 283 283 283 283 283 283 283 282 282 282 281 281 281 281 280 279 279 279 279 278 278 277 278 278 277 277 278
284 285 285 286 286 286 286 286 287 287 287 288 288 288 288 286 283 282 282 283 283 283 283 284 284 284 284 285 285 285 285 286 285 284 283 283 283 282 282 282 282 283 282 282 282 282 281 281 280 280 279 279 279 279 278 278 277 277 277 277 277 277
283 284 285 285 285 285 285 285 286 286 286 286 287 287 288 288 287 286 282 282 282 282 283 283 283 284 284 285 285 286 285 285 284 284 283 283 283 282 282 282 282 282 283 282 282 282 281 281 280 280 279 279 278 278 278 277 277 277 277 277 276 276
283 283 283 284 285 285 285 285 285 285 285 285 285 286 286 287 287 286 286 286 284 283 283 283 284 284 284 285 285 285 285 284 284 284 284 283 282 282 282 282 282 282 282 282 282 282 281 280 280 279 279 279 278 278 277 277 277 276 276 276 275 275
282 282 282 283 284 284 284 285 285 285 285 284 285 285 285 286 286 286 285 284 284 284 285 284 284 285 285 285 284 284 284 284 284 284 284 283 282 283 282 282 282 281 281 281 281 281 281 280 280 279 279 278 278 278 277 277 277 276 275 275 274 275
282 282 282 282 283 283 283 284 284 284 284 284 284 284 285 285 285 285 285 284 284 284 284 283 283 284 284 284 284 284 284 284 283 283 283 282 282 282 282 281 281 281 281 281 281 281 281 280 280 281 283 282 278 277 277 277 276 276 275 274 274 273
281 282 282 282 282 283 283 283 284 284 284 284 284 284 285 285 284 284 284 284 284 284 283 283 282 282 283 283 284 284 284 284 283 283 282 282 281 281 280 280 280 280 281 281 280 280 280 280 280 283 284 284 284 279 277 276 276 275 275 274 273 273
281 281 281 282 282 283 283 283 283 283 283 284 284 284 285 285 284 284 284 284 284 284 283 282 282 281 281 282 282 283 284 283 283 282 282 281 280 280 280 280 280 280 280 280 280 280 280 280 282 284 285 285 285 282 278 277 276 275 275 274 274 273
281 282 282 282 283 283 284 284 283 283 283 283 284 284 284 284 284 283 284 284 284 284 284 282 281 281 280 281 281 281 281 281 281 281 281 280 281 280 280 280 280 280 280 280 280 279 280 279 283 284 285 285 285 284 280 277 276 275 275 274 274 273
282 283 283 283 283 284 284 284 284 284 284 284 284 284 284 284 284 283 283 284 284 284 283 283 282 280 280 279 279 279 279 279 280 281 281 280 280 279 280 280 279 280 279 279 279 279 279 279 282 284 285 285 286 285 282 277 276 275 275 274 274 273
282 282 283 283 284 284 284 283 283 283 283 284 284 284 284 284 284 283 283 283 283 283 283 282 281 281 280 279 278 277 277 278 279 279 279 279 280 280 279 279 279 279 279 279 279 279 279 278 282 284 285 285 286 286 283 276 275 275 274 274 274 273
281 282 282 283 283 283 282 282 283 282 282 284 283 284 284 284 283 283 284 283 283 283 283 282 281 280 280 279 278 276 277 277 277 278 278 278 278 279 279 279 279 279 279 279 279 278 278 278 282 284 285 286 286 286 280 275 274 274 273 273 273 273
282 282 282 282 282 282 282 282 282 281 282 282 282 282 282 282 282 283 283 283 283 283 283 282 281 280 280 279 278 277 277 277 277 277 277 276 277 278 278 279 279 279 279 278 278 277 277 277 281 283 285 285 286 285 278 275 274 273 273 272 273 273
281 282 282 281 281 281 281 281 280 280 280 281 281 281 281 281 281 282 282 283 283 283 283 282 282 281 281 279 278 278 278 277 277 278 277 277 277 278 278 278 278 278 277 277 277 277 277 276 279 283 284 285 286 284 277 274 273 272 272 272 272 273
281 281 281 280 279 280 280 279 279 279 279 279 279 279 279 280 280 281 282 282 283 283 283 282 282 282 281 280 280 279 278 278 279 279 277 277 278 278 278 276 277 276 276 276 277 278 277 276 277 282 284 285 286 283 275 273 272 271 271 272 272 273
279 279 279 279 279 279 278 278 278 278 277 277 278 277 278 279 279 281 281 282 282 283 283 283 282 282 281 281 281 280 280 279 277 277 277 277 276 276 276 275 275 275 275 275 275 275 276 275 275 279 284 285 285 284 274 273 272 271 271 272 272 272
278 277 277 277 277 277 276 276 276 275 275 276 276 276 277 278 279 280 280 280 280 282 283 283 282 281 281 281 280 279 278 278 278 277 276 275 275 275 274 274 274 274 273 273 274 274 275 274 274 277 283 285 285 284 277 273 272 272 272 272 272 272
275 276 276 275 275 275 274 274 273 274 274 275 275 276 277 278 278 277 277 277 279 282 283 283 282 282 281 280 278 278 278 277 276 276 275 275 274 273 273 272 272 272 272 271 271 272 272 274 276 274 281 284 285 285 280 274 273 274 272 272 272 272
273 273 273 274 273 273 274 273 272 272 273 273 274 276 276 276 275 275 275 277 280 281 280 280 280 281 280 279 279 278 277 277 275 274 274 273 273 272 272 271 271 270 270 270 269 270 271 272 274 277 277 282 284 286 282 279 276 278 274 273 272 272
272 272 272 272 271 271 271 271 271 271 271 272 274 274 274 273 273 274 275 276 277 277 277 277 277 278 279 279 278 278 277 276 275 274 273 273 273 272 272 271 271 270 270 270 269 270 270 272 272 276 278 279 284 285 285 281 279 279 275 274 273 273
270 270 270 270 270 270 269 269 269 270 270 271 272 271 271 271 272 273 274 274 273 273 273 274 274 275 276 277 278 277 277 276 275 273 273 273 272 272 272 272 271 270 270 270 270 270 270 271 272 273 276 279 281 284 285 282 281 280 279 274 273 273
267 268 268 268 269 269 269 269 268 268 269 270 269 269 270 270 270 270 270 269 269 270 270 270 271 273 274 276 277 277 277 277 276 274 274 273 272 272 272 272 271 271 271 270 271 270 270 270 271 272 273 277 279 282 284 283 281 280 279 276 274 275
267 267 267 267 268 268 268 268 268 268 268 267 268 268 268 267 267 266 266 266 267 267 268 269 270 272 273 274 276 277 276 276 276 275 274 273 272 272 272 272 271 271 271 270 271 270 269 269 270 271 272 274 276 278 281 282 280 281 280 275 274 276
266 266 266 266 267 267 267 267 266 267 266 266 266 266 265 264 264 264 264 264 265 265 266 267 269 271 272 273 275 276 276 276 275 274 274 273 273 272 272 272 272 271 271 271 271 270 268 268 269 270 271 273 275 277 280 280 278 278 276 273 273 274
265 265 265 265 266 266 266 265 265 265 265 265 264 264 263 263 263 263 263 263 264 264 266 267 268 269 270 272 273 275 276 276 276 275 275 275 275 275 274 273 273 273 273 272 271 269 268 268 268 270 274 274 277 277 278 278 277 277 274 275 276 273
264 264 264 265 265 265 264 264 264 264 264 263 263 262 261 261 261 261 261 262 263 264 265 266 268 269 270 271 272 273 275 277 279 278 276 275 277 279 279 279 275 275 274 273 273 272 270 269 270 274 276 277 278 280 282 281 280 279 275 277 279 275
264 264 263 264 264 263 262 262 262 262 262 261 261 261 260 260 260 260 261 262 262 263 264 265 265 267 268 269 271 272 273 274 276 280 281 280 279 279 279 280 280 280 278 275 272 273 276 275 274 276 277 278 279 280 282 281 281 280 278 279 275 272
263 262 262 262 262 261 261 261 261 261 260 260 260 260 259 259 259 259 259 260 261 262 263 264 265 266 267 269 271 272 273 273 273 274 278 280 281 281 280 280 280 281 280 279 277 273 272 276 277 277 278 278 279 280 281 282 281 280 279 279 277 270
262 261 261 261 260 260 260 259 259 260 259 259 259 259 259 259 259 258 259 259 260 262 263 264 265 267 268 269 271 272 273 273 273 273 273 275 279 281 281 280 280 281 281 280 280 278 275 275 277 277 278 279 279 280 281 282 281 280 280 279 272 269
260 260 259 259 258 258 258 258 259 259 259 259 259 258 258 258 258 259 259 260 261 262 263 265 266 268 270 271 272 273 273 274 274 273 273 273 272 273 277 280 280 280 280 281 280 279 278 278 278 278 278 279 279 280 281 281 280 281 281 277 270 268
258 258 258 258 258 258 257 257 258 258 258 258 258 258 258 259 259 260 262 263 264 264 265 266 266 265 265 266 267 268 270 272 273 273 273 272 272 271 271 272 275 278 280 278 279 280 279 278 278 278 278 279 279 280 281 282 278 276 276 274 269 268
257 256 257 257 256 256 256 256 257 258 258 258 258 258 258 259 259 260 260 261 262 262 262 262 263 264 264 264 265 267 269 272 273 273 272 272 272 272 271 272 273 274 277 280 280 280 280 279 279 279 279 279 280 280 281 276 274 274 273 270 268 267
Wind_Speed
9 10 9 8 10 7 6 7 5 4 4 4 6 8 6 5 4 5 6 8 9 9 11 11 11 11 10 7 4 4 7 9 9 10 10 7 9 11 11 11 12 12 13 13 12 12 12 11 11 11 10 11 10 9 9 8 9 9 9 7 8 7
9 11 13 12 12 10 9 6 4 4 3 4 5 5 5 8 7 5 8 8 8 8 5 8 10 10 9 8 7 8 9 9 7 7 6 10 8 9 10 12 13 14 14 13 13 13 12 13 12 12 12 11 11 11 10 9 10 10 10 8 7 7
16 12 7 6 5 6 6 7 7 5 4 3 4 5 5 4 5 5 6 4 7 8 11 10 7 8 6 6 7 9 9 8 9 10 10 5 11 10 12 13 13 14 14 14 14 14 14 14 14 12 12 12 12 11 11 10 12 12 10 9 9 7
21 21 21 21 21 21 20 15 12 9 7 4 4 4 5 5 5 4 5 5 6 8 10 9 6 6 6 8 8 10 10 10 11 11 9 12 11 10 13 13 12 13 14 14 15 14 14 14 15 14 14 14 14 13 11 12 13 13 11 10 11 10
12 12 15 17 16 15 14 14 13 12 9 7 6 5 8 6 7 6 7 7 7 9 8 7 8 6 7 9 9 11 12 12 11 10 12 13 11 11 12 13 13 13 14 14 14 14 14 15 15 15 15 16 17 17 15 14 15 15 15 14 13 12
11 15 16 16 15 15 15 13 13 13 13 11 7 8 9 7 6 6 6 7 9 8 7 9 8 8 10 10 11 13 14 13 11 10 12 12 9 11 11 11 13 13 14 15 14 15 15 16 15 15 16 17 17 17 17 15 15 15 15 15 14 13
16 13 11 12 12 13 13 14 14 14 15 14 13 10 8 7 6 6 7 7 9 9 9 10 8 10 12 13 12 15 14 12 12 10 12 10 11 12 10 12 12 13 14 15 17 17 17 17 16 16 15 15 15 16 15 15 15 15 15 15 14 13
11 13 13 12 12 12 12 12 12 12 13 14 13 14 13 10 6 6 7 7 8 10 10 10 9 11 13 15 15 15 13 12 11 11 10 11 13 11 12 13 12 13 15 15 15 16 16 14 14 16 16 16 14 14 14 13 14 14 14 14 13 14
15 13 13 12 12 12 11 11 12 11 11 13 14 14 14 14 14 10 6 6 7 8 8 8 10 12 12 13 14 12 10 11 12 12 13 11 13 13 12 12 13 13 14 15 14 15 15 14 14 14 14 14 14 15 15 14 14 14 13 13 14 13
12 13 13 13 13 13 12 10 10 10 10 11 12 12 12 11 13 14 15 14 12 9 9 8 9 10 12 12 11 11 12 11 11 12 12 10 13 13 14 14 15 13 12 13 12 13 12 13 14 14 14 14 15 14 15 15 15 15 13 13 13 13
12 13 13 12 13 14 14 14 14 12 11 11 11 11 12 11 11 12 11 11 10 12 13 12 9 8 10 11 10 10 11 12 12 11 10 11 13 12 13 12 12 12 12 12 12 12 12 13 14 13 14 14 14 14 15 15 15 15 15 13 13 12
11 11 12 13 13 14 14 13 14 14 14 14 13 13 13 12 12 12 13 12 11 11 11 11 11 10 10 10 11 12 11 10 10 10 11 12 12 11 10 10 12 13 14 13 13 12 12 13 12 12 19 18 15 16 13 12 12 13 14 14 13 12
12 12 13 13 14 13 12 12 11 11 11 12 14 13 13 11 12 12 11 12 12 12 11 10 10 9 10 11 11 10 10 11 10 10 10 10 9 10 10 10 13 14 13 14 14 14 13 12 11 17 22 24 22 16 14 14 13 13 12 12 14 14
10 11 12 13 13 13 13 13 12 11 12 11 11 11 11 12 13 13 11 10 10 9 9 9 10 9 9 8 10 10 10 9 8 9 9 9 9 9 9 13 14 13 12 12 14 15 14 13 12 20 23 24 24 20 15 13 13 13 14 14 14 12
9 8 9 9 10 12 14 13 13 13 13 13 12 10 9 8 9 11 12 12 13 13 12 10 8 8 8 8 8 7 7 7 8 8 8 10 10 8 11 13 12 14 13 13 15 15 14 13 15 22 24 25 25 25 18 12 12 13 14 14 14 14
8 9 8 8 8 8 9 9 10 12 13 13 13 12 12 12 11 9 10 9 11 12 13 13 13 13 11 8 7 6 6 7 9 9 8 6 6 9 11 11 13 12 12 13 13 13 12 13 14 22 24 24 25 24 20 12 13 13 13 14 14 13
9 8 9 9 9 9 10 11 10 12 12 12 14 14 15 15 14 13 12 11 12 11 12 12 13 14 13 11 9 7 6 7 7 7 7 7 9 11 12 12 12 12 11 11 11 11 12 11 16 22 24 24 25 24 19 11 10 10 10 11 11 12
8 8 9 8 8 9 9 9 10 12 13 12 11 12 12 12 14 15 15 15 14 13 12 12 13 13 12 11 9 8 8 7 7 8 6 6 7 7 7 7 8 10 11 11 11 11 12 10 19 22 24 25 24 25 14 11 11 11 11 11 12 11
6 7 7 7 7 9 9 9 11 12 12 12 11 11 12 12 12 12 13 14 15 16 16 15 14 13 12 11 11 10 9 8 8 7 4 6 7 8 9 9 10 9 10 11 11 12 11 8 16 23 24 25 26 20 12 12 11 10 11 11 11 11
5 6 6 7 8 8 8 10 11 12 11 12 11 12 12 12 12 12 11 12 13 13 13 13 13 14 14 12 12 11 10 8 6 7 5 7 8 9 10 8 8 8 8 10 11 12 11 10 14 23 24 25 27 19 13 12 11 10 10 9 9 9
5 6 5 5 8 8 8 11 11 11 11 11 12 11 12 12 13 13 13 14 13 12 12 11 11 12 12 13 13 11 11 10 9 7 4 6 7 8 7 6 8 8 7 8 10 9 11 9 11 22 24 26 27 18 11 12 12 12 12 11 10 10
4 5 5 7 8 7 8 8 9 9 11 11 10 11 11 11 12 13 13 13 14 13 12 11 11 11 11 12 13 11 10 9 8 7 6 6 6 7 6 6 8 9 8 7 8 9 10 9 9 15 25 25 28 23 12 11 13 13 12 10 11 11
4 5 6 5 6 6 6 6 7 9 9 10 11 11 11 12 12 12 13 14 14 14 12 11 10 12 13 11 11 10 9 8 8 8 6 8 6 6 7 8 8 8 7 6 7 7 9 9 10 13 23 26 27 26 19 12 14 12 12 12 12 12
6 7 7 6 6 6 5 6 8 9 10 10 12 11 11 11 12 12 13 14 14 13 11 11 12 11 11 11 9 10 11 9 7 7 7 6 6 8 10 8 7 7 6 6 6 7 9 8 14 11 19 25 28 27 24 14 13 13 13 12 12 11
8 8 9 8 5 5 6 6 9 10 9 11 13 10 10 12 12 13 14 14 14 12 13 13 14 14 11 11 11 10 12 10 7 8 7 7 8 9 10 8 7 6 6 5 6 6 7 8 10 17 15 22 26 28 24 22 14 20 12 12 13 13
8 10 10 9 7 6 6 6 10 11 12 13 9 7 10 11 13 13 14 14 13 14 13 13 13 14 13 13 12 10 11 11 9 7 7 7 8 8 9 8 7 7 8 8 7 7 7 8 7 13 20 17 26 27 29 26 22 22 12 10 9 8
9 10 12 13 11 7 6 6 9 13 16 12 6 10 11 12 12 13 14 14 14 14 14 13 13 14 13 15 12 12 11 11 9 9 8 8 9 9 10 9 8 9 9 8 9 8 7 7 8 8 14 21 21 28 29 29 26 23 21 11 7 5
7 9 12 15 14 10 6 7 7 12 15 10 9 11 11 13 13 13 14 15 15 16 15 17 16 15 13 15 12 11 11 11 10 10 10 8 10 10 10 10 9 9 9 9 9 9 11 9 8 9 10 12 15 17 26 30 29 28 25 18 12 17
10 12 12 15 16 11 9 10 10 11 11 11 10 10 12 13 15 15 15 14 15 15 14 14 14 12 13 14 12 11 11 10 10 10 11 10 11 11 11 11 10 10 10 10 10 9 9 12 11 9 9 10 11 10 12 17 19 27 25 18 15 18
12 13 14 15 16 12 11 12 12 12 11 10 10 10 11 14 15 14 15 15 14 11 14 12 18 18 13 12 14 11 10 10 10 11 12 12 12 12 12 11 11 12 12 11 10 9 10 11 10 11 11 11 11 12 11 10 11 13 11 11 10 11
13 13 14 17 16 13 13 14 13 13 11 10 9 10 13 15 17 15 16 15 13 13 11 9 12 12 14 13 13 12 12 12 11 12 13 14 12 12 13 12 13 12 11 10 10 12 14 11 13 14 14 14 17 15 14 12 13 12 11 15 21 15
12 14 16 17 14 13 14 15 15 13 10 9 10 10 11 14 15 15 16 13 12 13 13 12 11 12 11 13 12 13 14 14 19 16 13 13 15 22 22 17 13 12 10 11 10 11 15 17 16 15 22 22 23 24 22 17 20 19 15 22 31 19
13 13 16 16 13 13 14 14 16 13 9 7 9 9 12 13 14 14 14 14 13 14 13 12 13 11 11 11 13 13 14 13 12 22 29 26 18 18 23 26 25 20 16 13 10 11 20 14 11 19 24 25 26 26 26 23 25 25 27 30 21 15
16 15 15 14 13 14 14 15 16 14 10 9 9 10 12 12 12 12 14 12 13 15 16 12 13 12 15 14 13 13 12 13 14 12 17 24 26 27 26 26 28 27 24 22 17 10 9 18 20 21 24 26 27 27 28 25 27 27 31 31 28 15
14 13 14 14 17 16 16 17 19 16 12 9 10 10 13 15 14 14 15 14 15 14 16 15 14 14 13 13 13 12 11 12 12 13 11 10 19 25 27 27 27 27 26 24 23 22 17 17 20 23 24 27 27 27 28 27 29 30 33 32 19 14
13 16 15 17 16 19 19 20 20 15 12 13 13 14 14 15 14 16 14 14 15 15 14 14 14 13 11 9 10 10 11 12 12 12 12 11 7 10 17 24 27 26 25 25 24 23 22 22 23 24 25 27 28 29 29 27 22 30 35 28 15 13
15 17 17 18 19 19 19 20 19 14 13 13 14 15 15 15 15 14 19 29 24 15 13 10 9 10 13 15 15 16 16 16 14 11 11 10 11 10 10 10 12 19 24 19 18 22 24 23 24 25 25 27 27 28 29 27 17 19 20 18 14 13
18 16 16 17 18 19 19 20 16 12 13 14 15 16 17 16 15 14 12 14 16 15 13 12 13 12 13 15 16 15 16 15 12 12 12 11 11 11 10 9 9 9 15 26 23 23 23 24 24 24 26 27 29 29 30 18 16 15 15 13 12 12
Wind_Direction
17 30 8 349 343 342 327 315 311 314 317 315 305 296 286 248 216 242 255 243 238 228 219 214 217 220 222 222 215 197 210 211 209 204 203 180 182 183 179 180 184 186 189 189 190 186 188 185 184 180 180 180 183 183 183 173 172 180 186 185 177 177
49 24 12 9 1 358 347 325 318 339 351 337 317 301 307 312 302 284 255 257 260 258 244 229 222 223 222 214 204 204 210 212 213 214 206 206 186 190 178 185 187 186 187 191 189 186 184 184 184 181 182 181 188 182 181 179 173 182 188 183 181 174
14 25 36 39 41 40 23 11 5 6 6 342 305 301 302 295 276 277 268 280 272 282 267 255 238 234 224 219 214 217 215 209 207 207 207 184 203 185 189 190 189 188 190 188 190 188 186 185 183 183 181 184 187 186 184 176 180 185 187 175 182 183
6 5 6 11 13 12 10 3 3 5 349 314 303 297 280 262 269 264 273 275 273 265 261 270 280 258 227 223 220 224 219 215 212 206 189 204 201 191 198 193 190 190 189 190 192 190 189 188 187 184 183 185 186 187 184 183 183 186 183 178 187 184
13 6 10 11 11 8 6 5 6 359 347 334 319 299 283 261 262 257 258 256 252 250 253 259 255 252 243 231 228 228 224 221 217 204 207 210 202 199 199 196 191 191 191 193 192 190 190 190 191 189 187 190 188 187 187 186 185 185 183 185 189 183
13 16 11 8 6 5 6 5 6 5 2 352 336 318 303 293 276 268 262 260 261 259 257 250 245 241 238 235 232 231 227 222 219 209 215 213 201 203 204 200 197 190 191 193 193 193 194 194 194 191 194 192 190 189 189 186 188 189 189 188 184 181
17 14 9 7 4 4 5 6 6 5 0 356 354 340 316 302 288 273 265 259 261 258 253 252 241 240 239 238 238 236 232 226 224 217 218 208 208 204 197 203 199 198 195 195 195 196 197 197 193 192 194 195 195 193 189 188 189 191 191 189 186 181
7 10 9 7 6 4 3 3 5 3 360 354 352 350 346 336 313 287 280 267 261 262 254 252 245 242 240 240 241 240 234 229 226 221 218 211 213 204 204 203 200 201 200 202 200 199 200 195 195 196 195 194 191 191 191 189 190 192 190 188 186 183
9 4 4 3 1 2 0 360 1 1 358 353 352 348 345 343 342 333 304 277 261 266 258 246 241 240 242 243 243 243 236 229 224 220 219 209 213 209 207 206 207 208 203 203 200 201 197 196 197 197 196 194 193 191 189 188 190 191 191 191 187 184
0 1 358 357 356 353 356 358 0 359 357 353 349 345 345 345 341 339 337 334 325 304 281 262 254 250 248 248 247 243 239 233 228 224 220 208 214 212 209 206 208 211 208 207 202 202 196 198 200 198 196 194 193 191 193 190 188 188 189 188 187 185
355 352 352 350 350 352 352 352 353 354 355 354 349 346 345 343 340 339 336 326 318 314 307 300 282 268 263 256 252 247 241 235 231 227 220 214 217 216 214 208 206 206 208 207 204 201 198 201 203 200 194 192 192 194 195 193 191 187 186 185 186 185
349 348 348 348 349 349 349 350 350 349 350 349 347 344 343 344 344 344 343 343 334 321 310 300 294 286 276 269 258 250 243 238 232 225 223 221 219 217 213 209 207 207 206 202 203 201 201 206 206 198 193 189 190 190 191 190 193 191 188 184 182 183
343 345 348 347 346 344 343 342 341 341 344 344 342 342 339 341 341 345 344 341 339 332 324 314 298 285 274 264 260 258 250 241 234 228 226 224 216 214 210 205 209 211 206 202 200 201 206 208 206 196 196 194 189 185 188 187 188 190 189 188 184 184
340 342 341 341 339 339 341 340 339 340 342 340 337 335 334 339 340 339 337 334 334 334 328 321 307 290 272 263 258 253 249 245 238 233 227 221 218 214 207 211 212 211 208 205 203 205 207 208 200 197 197 195 192 187 187 188 187 187 189 187 187 185
331 331 334 336 336 336 335 336 335 338 338 334 330 327 329 333 333 331 332 335 338 339 338 331 322 304 292 279 267 261 256 246 240 236 227 222 219 210 214 218 211 213 210 206 205 207 205 209 198 199 197 196 194 190 184 190 188 187 192 188 187 184
325 325 328 327 325 325 321 329 328 328 331 328 328 331 332 334 334 334 328 331 335 336 336 337 336 330 320 306 291 280 267 254 245 240 232 229 215 216 221 221 220 218 212 211 210 210 207 208 198 199 198 197 195 191 184 190 187 192 193 191 187 184
315 317 324 329 331 330 330 329 333 330 328 332 331 332 334 335 333 333 334 334 334 337 337 337 335 331 327 323 314 296 274 258 257 248 234 222 217 217 218 217 219 218 215 213 210 211 210 207 194 198 197 196 194 192 182 185 187 190 193 191 189 189
308 312 315 318 325 325 327 324 330 331 325 327 326 325 328 328 330 329 333 335 335 336 336 335 331 327 324 322 318 307 288 272 255 250 238 226 233 231 231 233 226 221 218 214 210 211 213 203 194 197 196 194 192 188 180 182 185 188 188 189 188 185
291 300 305 311 318 322 322 329 331 327 323 323 324 326 324 326 325 327 329 329 331 333 333 333 329 324 321 320 319 310 296 283 270 257 239 231 229 223 222 225 220 219 217 213 211 211 213 202 196 196 195 193 190 185 181 180 184 189 190 191 184 178
286 293 298 310 315 317 325 332 330 325 322 322 323 325 322 322 320 323 324 321 323 323 323 322 321 320 318 318 313 304 299 286 273 265 236 232 235 228 225 219 224 221 217 214 212 209 208 205 198 196 194 193 191 183 176 175 178 182 184 186 186 186
282 289 298 309 311 317 334 329 325 322 318 319 320 319 316 317 320 324 322 319 317 315 313 313 313 313 312 310 306 305 301 296 286 275 256 246 244 244 236 217 220 223 216 217 212 206 207 202 198 199 197 195 194 185 167 171 179 181 187 181 182 186
301 296 300 306 304 318 325 319 316 313 313 312 312 309 308 313 318 318 315 315 314 310 308 308 310 309 308 303 299 297 290 289 290 274 259 254 245 249 235 226 220 216 216 206 203 205 203 196 196 202 200 198 198 186 163 174 179 186 183 180 181 179
274 276 279 281 293 307 311 309 308 303 301 300 299 299 304 311 316 316 318 315 310 305 303 307 308 307 304 299 294 293 289 280 271 269 256 252 249 248 243 230 229 221 216 199 204 201 204 194 191 205 203 204 202 192 167 183 187 183 180 182 180 187
288 285 283 277 287 298 301 301 297 296 296 295 293 297 307 314 317 318 315 309 303 301 306 311 310 306 299 298 296 290 284 276 264 261 255 248 240 236 237 233 226 226 221 209 198 201 205 194 192 194 206 207 208 202 174 179 191 180 178 179 189 187
287 278 278 285 288 292 291 292 289 286 287 284 289 306 315 317 316 314 308 303 301 307 312 311 311 308 304 297 292 282 278 276 262 253 243 241 237 235 238 230 226 221 225 223 219 207 203 200 199 196 200 209 209 209 186 183 180 186 180 185 186 188
283 289 287 285 284 285 287 291 290 288 287 282 295 314 313 313 311 307 303 302 304 307 307 308 305 305 303 295 287 277 271 268 257 249 235 233 231 233 233 230 220 219 220 215 218 219 207 199 199 206 206 208 209 211 203 192 184 185 180 183 187 178
286 291 292 292 293 289 286 278 281 285 284 289 328 315 311 308 305 303 302 306 307 305 304 304 300 295 296 293 282 272 266 261 248 246 239 226 232 229 229 229 211 216 219 217 218 213 206 204 197 197 213 213 215 210 202 192 187 186 177 176 164 114
280 283 286 291 290 292 291 283 274 281 284 306 319 311 308 308 308 307 304 302 301 301 304 302 297 293 288 287 277 262 256 255 244 234 239 222 230 227 227 229 218 218 218 220 221 206 171 197 197 202 197 211 223 222 214 194 187 182 179 167 163 165
288 286 286 288 289 294 295 291 286 279 292 304 311 310 311 311 309 303 298 292 293 296 297 297 295 294 293 287 280 265 256 248 242 235 235 226 226 225 225 226 222 222 219 220 219 211 192 185 198 202 202 194 201 214 226 199 193 188 176 162 163 165
282 285 289 287 287 295 293 287 286 288 296 303 307 313 313 305 298 296 293 289 291 289 289 288 288 289 286 284 280 271 259 245 234 235 231 226 221 222 226 221 221 221 216 218 214 201 177 188 202 203 197 202 196 198 204 192 182 183 170 162 162 163
284 283 285 284 287 292 290 286 287 288 296 301 307 311 306 298 295 291 286 285 287 283 278 273 273 276 282 281 278 267 259 256 244 235 240 232 225 220 222 219 225 223 218 213 206 185 190 200 209 210 197 197 197 195 194 182 180 175 168 165 157 148
278 283 283 283 288 291 288 289 288 288 293 302 300 299 290 289 290 288 284 283 281 280 284 284 275 273 271 273 273 276 272 251 242 240 236 246 226 229 230 226 228 222 208 213 213 193 196 203 210 197 196 199 200 203 201 190 179 173 161 165 162 153
282 281 280 281 289 287 288 288 289 290 296 297 290 289 284 280 281 280 279 283 280 282 285 283 283 278 273 271 271 271 273 279 259 246 247 245 241 230 233 234 236 232 215 205 213 207 214 216 199 196 199 198 201 202 204 191 183 170 165 166 158 156
290 286 283 285 287 288 290 288 286 288 297 295 286 279 275 272 275 278 277 276 276 282 281 275 273 275 274 272 268 265 265 264 269 261 242 244 247 245 242 239 236 235 230 221 212 192 204 213 209 201 199 199 199 201 203 194 182 172 170 172 160 157
290 289 289 289 291 291 289 287 285 291 298 288 280 274 273 271 268 268 271 272 276 277 275 268 266 267 267 267 268 268 262 261 257 260 268 240 238 243 243 239 237 235 232 226 220 208 194 194 204 203 199 198 199 200 203 196 183 174 174 167 165 171
289 289 289 291 291 289 288 286 285 294 297 293 284 276 267 266 262 263 264 270 272 273 268 262 259 260 264 273 275 276 274 265 256 253 252 259 248 241 245 244 240 237 233 229 223 216 208 205 200 200 199 200 200 201 203 197 185 178 177 172 171 168
289 287 287 288 289 287 285 283 286 294 289 280 278 275 272 268 269 269 274 275 276 268 265 269 284 290 288 282 276 269 262 260 261 252 249 243 242 237 232 224 230 231 228 226 224 218 210 203 201 198 199 201 200 201 201 196 180 181 185 176 170 169
286 283 285 286 284 282 281 280 284 286 278 277 277 277 275 275 272 271 269 272 274 276 279 276 275 274 273 273 274 281 285 282 263 241 234 234 233 234 232 237 225 223 225 225 223 217 212 205 202 200 200 202 200 199 198 191 184 183 183 171 168 167